Location: downtown San Diego
(32.7310°N, 117.1990°W)
Time: 14:28:56
(UTC-07:00)

Cosmos 1570 Rocket - Pass Details

Date: 12 July 2018
Orbit: 764 x 788 km, 74.1° (Epoch: 14 July)

Event Time Altitude Azimuth Distance (km) Brightness Sun altitude
Rises 21:57:51 0° 344° (NNW) 3,235 8.3 -21.0°
Reaches altitude 10° 22:00:14 10° 345° (NNW) 2,304 7.3 -21.4°
Maximum altitude 22:05:28 85° 74° (ENE) 770 3.9 -22.1°
Enters shadow 22:06:45 53° 157° (SSE) 936 4.0 -22.3°
